Find OneWeb SL0119

NORAD ID: 47278 Int'l Des: 2020-100 Owner: ONEWEB Country: UK Constellation: oneweb operational
別名: ONEWEB-0132 spacetrack, celestrak
LEOCIRCULARPOLARONEWEB_TYPE

現在のビュー

3D地球を読み込み中...

About OneWeb SL0119

OneWeb SL0119 (NORAD 47278) is a oneweb constellation satellite launched Dec 18, 2020 by ONEWEB of UK. It operates in LEO, CIRCULAR, POLAR, ONEWEB_TYPE orbit with a mass of 148.00 kg.

次回通過

Passes for default location (London). Set your location on the main map for personalized predictions.

高度履歴

Loading altitude history...

軌道要素

1 47278U 20100W 26235.22774400 -.00000257 00000-0 -74847-3 0 9994
2 47278 87.8998 337.3550 0001944 102.9065 257.2281 13.12441209273372
Epoch: Aug 23, 2026 • Age: 22 hours

現在のステータス

高度 1226.3 km
遠地点 / 近地点 N/A
速度 7.24 km/s
衛星直下点 -30.85°S, 45.48°W
打ち上げ日 Dec 18, 2020
運用期間 5.6 years
タイプ internet

技術仕様

分類 Payload
質量 148.00 kg
乾燥質量 140.00 kg
総質量 148.00 kg
長さ 1.30 m
直径 1.00 m
スパン 5.00 m
形状 Trapezoid+2 pan
製造者 ONEWUS
バスタイプ ARROW
フェーズステータス In Orbit
所有者/国 ONEWEB/UK

Most Searched